Погода в Светловодске

Погода в Светловодске : погода сейчас, прогноз погоды и архив. Всё, что Вы хотите узнать о погоде в Светловодске!

Хотите узнать прогноз погоды в Светловодске? Тогда Вам сюда: Погода в Светловодске

Поиск расширенной информации на нашем сайте:

Другие новости

Новости СМИ2

Главная страница сайта

Новости сайта

03.07.2017

Напоминаем, что на нашем специализированном сайте Метеоцентр.Азия вы можете получить высокодетализированные автоматические прогнозы погоды по пунктам России, СНГ и мира в авиационном формате (включающие направление и скорость ветра, видимость, явления погоды, количество и форму облачности, нижнюю и верхнюю границу облачности).


Погода в Светловодске - сегодня

Время (UTC), дата Ветер
(°,м/с) 
Видим.   Явления Облачность Т
(°С)
Тd
(°С)
f(%) Тe
(°С)
Pmin
(гПа)
dP
(гПа)
Po
(мм)
O2
(г/м3)
Тmin Tmax R s Состояние
почвы
15 17.04.18 250 (З) 20000 м    10/0 средняя 
[Ac As]
+18.9 +2 32 +20  1019.2  -0.6  757  285           
18 17.04.18 260 (З) 25000 м    10/0 средняя 
[Ac As]
+16.8 +2.7 39 +18  1019.7  0.4  757  287    +21.4       
21 17.04.18 220 (ЮЗ) 22000 м    10/0 средняя 
[Ac und]
+16.5 +5.4 48 +17  1019.7  757  287           
00 18.04.18 250 (З) 24000 м    10/0 средняя 
[Ac As]
+15.6 +6.3 54 +16  1018.9  -0.8  757  287           
03 18.04.18 270 (З) 10 км    10/10 700 м 
[Sc]
+13.6 +5.5 58 +15  1018.6  -0.4  756  289           
06 18.04.18 300 (СЗ) 10 км  слаб. ливневой дождь  10/10 660 м кучево-дожд. 
[Cb cap]
+13.9 +9.4 74 +13  1019.5  0.9  757  289  +12.7    0.0     
09 18.04.18 310 (СЗ) 10 км  {ливн. осадки}  9/9 630 м 
[Sc]
+11.3 +9.3 87 +11  1020.6  758  292           
12 18.04.18 300 (СЗ) 20000 м  {ливн. осадки}  8/0 средняя, верхняя 
[Ac und|Ci fib]
+14.2 +7.3 63 +14  1019.5  -1  757  289      0.3     
15 18.04.18 310 (СЗ) 20000 м    4/3 600 м верхняя 
[Sc|Ci fib]
+14.8 +6.5 58 +15  1018.7  -0.8  756  288           
18 18.04.18 310 (СЗ) 23000 м    4/3 600 м средняя 
[Sc|Ac und]
+11.3 +6.4 72 +11  1019.2  0.4  757  292    +15.6  0.3     
03 19.04.18 300 (СЗ) 20000 м    10/4 600 м средняя, верхняя 
[Sc|Ac und|Ci fib]
+10.8 +6.6 75 +10  1014.3  -2.2  753  291           
06 19.04.18 300 (СЗ) 20000 м    8/6 600 м кучево-дожд., средняя 
[Cb calv|Ac trans]
+12.1 +7.6 74 +11  1012.3  -1.9  752  289  +9.7         
09 19.04.18 300 (СЗ) 20000 м  в посл. час ливневой дождь  10/10 800 м кучево-дожд. 
[Cb calv]
+11.7 +7.4 75 +11  1010.8  -1.5  750  289           
12 19.04.18 300 (СЗ) 20000 м  {ливн. осадки}  10/10 1050 м 
[Sc]
+12 +7.5 74 +11  1009.4  -1.4  749  288      0.0     
15 19.04.18 310 (СЗ) 4000 м  слаб. ливневой дождь  10/10 800 м кучево-дожд. 
[Cb calv]
+11.7 +6.4 70 +10  1009.6  0.2  749  289           
18 19.04.18 320 (СЗ) 8000 м  слаб. ливневой дождь  10/10 720 м кучево-дожд. 
[Cb cap]
+9.7 +7.6 87 +8  1010.6  0.9  750  291    +13     
21 19.04.18 360 (С) 15000 м  {ливн. осадки}  10/6 600 м средняя 
[Sc|Ac und]
+8.9 +5.4 79 +7  1011.4  0.8  751  292           
00 20.04.18 320 (СЗ) 15000 м  {ливн. осадки}  4/0 средняя, верхняя 
[Ac trans|Ci fib]
+8.3 +4.7 78 +7  1011.7  0.3  751  293      0.0     
03 20.04.18 320 (СЗ) 10 км    10/6 600 м средняя 
[Sc|Ac und]
+8 +5.6 85 +6  1012.5  0.8  752  293           
06 20.04.18 350 (С) 10 км    4/0 средняя 
[Ac und]
+9.5 +5.1 74 +8  1013.7  1.2  752  292  +8    0.0     
09 20.04.18 340 (С) 20000 м    ясно 
+14 -2.4 32 +13  1014.5  0.9  753  289           
12 20.04.18 350 (С) 20000 м    3/3 1000 м 
[Cu hum]
+16.5 -0.8 31 +16  1015.2  0.8  754  286           
15 20.04.18 350 (С) 20000 м    3/3 600 м 
[Cu hum]
+15.4 +2.1 41 +15  1016.1  0.9  754  287           
18 20.04.18 360 (С) 30000 м    3/0 верхняя 
[Ci fib]
+12.8 +2.8 51 +13  1017.8  1.6  756  290    +17.3       
21 20.04.18 310 (СЗ) 25000 м    ясно 
+10.6 +6.3 75 +11  1018.5  0.6  756  292           
Время (UTC), дата Ветер
(°,м/с) 
Видим.   Явления Облачность Т
(°С)
Тd
(°С)
f(%) Тe
(°С)
Pmin
(гПа)
dP
(гПа)
Po
(мм)
O2
(г/м3)
Тmin Tmax R s Состояние
почвы

Для получения пояснительной информации подведите курсор к названию столбца.

ПОГОДА в Светловодске - архив

Всё, что Вы хотите узнать о погоде в Светловодске - удобно и подробно!

Выберите нужную дату (начиная с 1 января 2015* года) и нажмите кнопку "Найти".
Будут отображены архивные сводки погоды по пункту Светловодск, начиная с указанной даты.


Отображать данные в формате CSV (для использования в таблицах Excel)


Внимание! Наш архив погоды предназначен исключительно для личного некоммерческого использования в познавательных целях. Если Вам необходимы официальные справки о состоянии погоды (для производственных, юридических, коммерческих и т.п. целей), обращайтесь в органы Росгидромета.

*Примечание: данная дата относится к архиву по метеостанциям СССР (Россия, СНГ, Балтия).
Архив по метеостанциям Зарубежной Европы и Азии (кроме Китая) хранится 10 дней, по другим регионам земного шара (Китай, Африка, Америка, Австралия, Океания) - 1 день.

Светловодск - район местоположения метеостанции


Название, широта, долгота, высота метеостанции:
Светловодск 49.1°ш. 33.2°д. 84 м над ур. моря [Украина]

Дополнительная информация

В oтличие oт бoльшинства пoгoдных сайтoв мы публикуем пoдрoбную метеoинфoрмацию в детальнoм прoфессиoнальнoм фoрмате.

Характеристики температуры и влажнoсти вoздуха измеряются на высoте 2 м в тени вдали oт зданий и деревьев.
Скoрoсть ветра измеряется на высoте 10 м (на урoвне рoста челoвека скoрoсть ветра ниже в 1.5-2 раза). Если метеoстанция нахoдится в гoрoде или в лесу, тo скoрoсть ветра занижена на 2-4 м/с пo сравнению с oткрытым местoм. Скoрoсть ветра над акватoриями крупных рек и oзёр, а также на вершинах хoлмoв на 2-5 м/с выше, чем в oбычных услoвиях.
Атмoсфернoе давление в разных тoчках местнoсти мoжет значительнo oтличаться oт давления на метеoстанции, в зависимoсти oт услoвий рельефа (при пoдъёме на 10 м давление пoнижается примернo на 1 мм рт.ст.).